sat.trackr.live / text

‹ back to catalog

STARLINK-36990

NORAD 68068 · 2026-041AE

PAYLOAD ACTIVE UNKNOWN

§ Identity

Operator
Country
US
Launch date
2026-03-02
Launch site
AFETR
Launch vehicle
Mass (kg)
RCS (m²)

Purposes: comms

External: N2YO · Heavens-Above · Gunter

§ Orbital elements

Epoch: 2026-05-25T01:45:16.984800Z

Period
93.85 min
Inclination
53.1602°
Eccentricity
0.0001027
Mean motion
15.34399264 rev/d
Perigee alt
462.0 km
Apogee alt
463.4 km
Semi-major
6,840.8 km
B*
8.5149e-4
RAAN
55.0236°
Arg perigee
73.2862°
Mean anomaly
286.8253°
Rev number
1,308

§ Raw data

STARLINK-369901 68068U 26041AE  26145.07311325  .00028501  00000+0  85149-3 0  99962 68068  53.1602  55.0236 0001027  73.2862 286.8253 15.34399264 13088

JSON: /api/v1/satellites/68068 · /tle

For live sub-satellite position, see the globe view (requires WebGL).

§ Visibility from observer

Set your observer location to see the next 7 days of passes ≥ 10°. The values pass through the URL so the page stays shareable.

No JS? Fill the form by hand. The geolocation button needs JavaScript.